SCP
2 1 0 0 0 0 0 0 0 0 0 0 0 0 0 0 0 0 0 1 1 1 1 1 1 1 1 1 1 1 1 1 0 0 0 0 0 0 0 0 0 0 0 0 0 0 0 0 0
2 1 1 0 0 0 0 0 0 0 0 0 0 0 0 0 0 0 1 1 1 1 1 1 1 1 1 1 1 1 1 1 0 0 0 0 0 0 0 0 0 0 0 0 0 0 0 0 0
2 1 1 0 0 0 0 0 0 0 0 0 0 0 0 0 0 1 1 1 2 2 1 1 1 1 1 1 1 1 1 1 0 0 0 0 0 0 0 0 0 0 0 0 0 0 0 0 0
2 1 1 0 0 0 0 0 0 0 0 0 0 1 1 1 1 1 1 2 2 2 1 1 1 1 1 1 1 1 1 1 0 0 0 0 0 0 0 0 0 0 0 0 0 0 0 0 0
1 1 1 0 0 0 0 0 0 0 0 0 0 1 1 1 1 1 1 2 2 2 1 1 1 1 1 1 1 1 1 1 0 0 0 0 0 0 0 0 0 0 0 0 0 0 0 0 0
1 1 0 0 0 0 0 0 0 0 0 0 0 1 1 2 2 2 2 2 2 2 2 1 1 1 1 1 1 1 1 0 0 0 0 0 0 0 0 0 0 0 0 0 0 0 0 0 0
1 1 0 0 0 0 0 0 0 0 0 0 0 1 1 2 2 2 2 2 2 2 2 2 2 1 1 1 1 1 1 0 0 0 0 0 0 0 0 0 0 0 0 0 0 0 0 0 0
0 0 0 0 0 0 0 0 0 0 0 0 0 1 1 1 2 2 2 2 2 2 2 2 2 2 1 1 1 1 0 0 0 0 0 0 0 0 0 0 0 0 0 0 0 0 0 0 0
0 0 0 0 0 0 0 0 0 0 0 1 1 1 1 2 2 3 3 2 2 2 2 2 2 2 2 1 1 1 0 0 0 0 0 0 0 0 0 0 0 0 0 0 0 0 0 0 0
0 0 0 0 0 0 0 0 0 0 0 1 1 2 2 2 2 3 3 2 2 2 2 2 2 2 2 1 1 1 0 0 0 0 0 0 0 0 0 0 0 0 0 0 0 0 0 0 0
0 0 0 0 0 0 0 0 0 0 0 1 1 2 2 2 3 3 3 2 2 2 2 2 2 2 2 1 1 1 0 0 0 0 0 0 0 0 0 0 0 0 0 0 0 0 0 0 0
0 0 0 0 0 0 0 0 0 0 0 1 1 2 2 3 3 3 3 2 2 2 2 2 2 2 2 2 1 1 0 0 0 0 0 0 0 0 0 0 0 0 0 0 0 0 0 0 0
0 0 0 0 0 0 0 0 0 0 0 1 1 2 2 2 3 4 3 3 3 2 2 3 2 2 2 1 1 0 0 0 0 0 0 0 0 0 0 0 0 0 0 0 0 0 0 0 0
0 0 0 0 0 0 0 0 0 0 0 1 1 2 2 2 3 3 3 3 3 3 3 3 3 2 2 1 1 1 0 0 0 0 0 0 0 0 0 0 0 0 0 0 0 0 0 0 0
0 0 0 0 0 0 0 0 0 0 0 1 1 2 2 2 2 3 3 3 3 2 2 2 2 2 2 1 1 1 0 0 0 0 0 0 0 0 0 0 0 0 0 0 0 0 0 0 0
0 0 0 0 0 0 0 0 0 0 0 1 1 1 1 1 1 2 4 5 4 2 2 2 2 3 2 1 1 1 0 0 0 0 0 0 0 0 0 0 0 0 0 0 0 0 0 0 0
0 0 0 0 0 0 0 0 0 0 0 0 1 1 1 1 1 1 4 7 4 2 2 2 3 3 2 1 1 1 0 0 0 0 0 0 0 0 0 0 0 0 0 0 0 0 0 0 0
0 0 0 0 0 0 0 0 0 0 0 0 0 1 1 1 1 1 3 4 3 2 1 2 2 3 2 1 1 1 0 0 0 0 0 0 0 0 0 0 0 0 0 0 0 0 0 0 0
0 0 0 0 0 0 0 0 0 0 0 0 0 0 0 1 1 1 1 2 2 1 1 1 2 2 2 1 1 1 1 1 0 0 0 0 0 0 0 0 0 0 0 0 0 0 0 0 0
0 0 0 0 0 0 0 0 0 0 0 0 0 0 0 0 0 1 1 1 2 2 1 2 2 2 2 2 1 1 1 1 0 0 0 0 0 0 0 0 0 0 0 0 0 0 0 0 0
0 0 0 0 0 0 0 0 0 0 0 0 0 0 0 0 0 0 1 1 1 2 2 2 2 2 2 2 2 1 1 1 1 1 1 0 0 0 0 0 0 0 0 0 0 0 0 0 0
0 0 0 0 0 0 0 0 0 0 0 0 0 0 0 0 0 0 1 1 1 1 2 2 2 2 2 2 2 1 1 1 1 1 1 1 0 0 0 0 0 0 0 0 0 0 0 0 0
0 0 0 0 0 0 0 0 0 0 0 0 0 0 0 0 0 0 0 1 1 1 1 2 2 2 2 2 2 2 2 1 1 1 1 1 1 0 0 0 0 0 0 0 0 0 0 0 0
0 0 0 0 0 0 0 0 0 0 0 0 0 0 0 0 0 0 0 0 1 1 1 1 1 2 2 2 2 2 2 2 1 1 1 1 1 1 1 0 0 0 0 0 0 0 0 0 0
0 0 0 0 0 0 0 0 0 0 0 0 0 0 0 0 0 0 0 0 0 1 1 1 1 2 2 2 2 2 2 2 1 1 1 1 1 1 1 0 0 0 0 0 0 0 0 0 0
0 0 0 0 0 0 0 0 0 0 0 0 0 0 0 0 0 0 0 0 0 0 0 1 1 2 2 2 2 2 2 2 1 1 1 1 1 1 0 0 0 0 0 0 0 0 0 0 0
0 0 0 0 0 0 0 0 0 0 0 0 0 0 0 0 0 0 0 0 0 0 0 0 1 1 2 2 2 2 2 2 2 2 1 1 1 1 0 0 0 0 0 0 0 0 0 0 0
0 0 0 0 0 0 0 0 0 0 0 0 0 0 0 0 0 0 0 0 0 0 0 0 0 1 1 1 2 2 2 2 2 2 1 1 1 1 0 0 0 0 0 0 0 0 0 0 0
0 0 0 0 0 0 0 0 0 0 0 0 0 0 0 0 0 0 0 0 0 0 0 0 0 0 0 1 1 1 1 1 1 1 1 1 1 0 0 0 0 0 0 0 0 0 0 0 0
0 0 0 0 0 0 0 0 0 0 0 0 0 0 0 0 0 0 0 0 0 0 0 0 0 0 0 0 0 0 0 0 0 0 0 0 0 0 0 0 0 0 0 0 0 0 0 0 0
Wind_Speed
4 2 2 4 6 3 4 5 3 3 3 2 2 3 5 5 5 4 2 7 11 12 11 14 16 16 16 16 15 15 14 14 14 14 14 13 13 13 13 13 13 13 13 13 14 14 14 14 14
0 1 4 5 5 3 5 5 5 5 2 2 0 1 1 1 0 4 5 6 12 12 10 11 15 16 16 16 15 14 14 13 13 13 13 13 13 12 13 12 13 13 13 13 14 14 13 13 13
1 2 3 4 4 7 6 5 6 3 3 1 1 1 1 1 2 5 5 10 12 11 9 11 15 16 16 15 15 14 13 13 13 13 13 12 12 12 12 13 12 13 13 13 13 13 12 12 12
2 3 4 3 7 7 6 3 3 1 2 1 1 2 1 2 2 4 9 12 12 9 9 11 15 15 15 15 14 14 13 13 12 12 12 12 12 12 13 12 12 12 12 12 12 12 11 11 11
3 3 3 4 8 5 4 3 2 1 1 1 1 0 3 5 2 8 12 14 13 9 8 11 15 15 15 15 14 13 13 13 12 12 12 12 12 13 12 12 12 12 11 11 11 11 10 10 10
3 3 5 9 8 5 4 3 2 1 0 0 2 1 2 2 5 10 12 12 10 10 9 10 15 14 14 14 13 12 12 12 12 11 11 12 12 13 12 12 11 11 11 10 10 10 9 9 9
4 4 6 7 7 6 6 3 3 2 1 2 3 2 2 1 5 9 10 9 8 7 8 8 9 11 13 13 12 12 11 11 10 10 10 10 11 12 12 11 10 10 9 9 9 8 8 8 9
4 4 5 6 8 8 4 4 3 5 3 2 4 4 3 4 7 9 9 9 8 6 6 7 8 8 8 8 11 11 11 10 9 9 9 9 10 10 10 9 9 9 8 8 7 7 7 7 7
3 3 7 8 9 6 5 5 2 2 3 1 1 2 2 9 11 11 9 8 9 8 6 7 7 7 7 7 8 9 10 9 8 7 9 8 5 5 5 6 7 7 7 7 6 6 6 6 6
4 6 8 5 5 4 5 5 4 2 1 1 1 1 5 12 13 13 12 12 12 11 9 7 8 8 7 6 5 4 4 5 5 4 5 4 4 3 4 6 7 6 6 5 5 5 5 4 3
5 6 4 2 2 3 3 3 2 4 4 5 4 5 9 12 13 13 12 12 11 10 10 8 8 8 7 5 5 3 3 3 4 5 5 4 4 3 3 2 3 3 3 2 2 3 2 2 2
4 3 3 2 0 1 3 3 2 5 6 3 5 7 10 13 14 14 14 12 10 10 10 9 8 8 7 6 5 4 4 3 3 4 5 4 3 3 3 2 2 2 2 2 2 1 1 1 1
3 2 3 1 1 1 0 2 3 5 4 1 2 6 9 11 11 9 9 10 10 11 11 10 9 9 8 7 5 5 5 5 4 4 5 5 4 4 3 2 2 2 2 2 2 2 2 1 1
4 3 2 1 1 1 0 2 3 6 3 2 4 6 7 9 9 7 7 9 10 11 11 9 10 10 9 7 6 5 5 5 5 4 5 6 4 4 4 4 3 3 3 3 3 3 2 2 2
3 3 1 3 3 2 1 3 6 5 2 3 4 5 6 6 7 9 10 10 10 10 9 9 10 10 10 9 8 6 5 5 5 5 6 6 6 6 5 4 4 4 3 3 2 2 1 2 2
4 4 4 4 5 3 4 8 7 2 4 4 4 4 4 5 6 6 7 7 7 7 8 9 9 9 9 8 7 6 6 6 5 5 5 7 7 7 6 5 5 5 4 3 3 3 2 3 3
4 6 6 3 5 5 7 8 5 2 5 5 4 4 4 4 3 3 4 6 7 8 8 8 7 9 9 8 6 6 6 6 5 5 5 6 7 7 6 5 5 5 4 4 4 3 3 3 3
7 6 5 5 3 5 6 6 4 1 4 5 4 3 4 4 5 3 3 4 5 6 6 7 7 7 7 5 4 3 4 4 4 4 5 7 7 8 7 5 6 5 4 4 4 4 4 3 3
4 4 5 4 2 4 6 6 6 3 2 4 4 4 5 5 4 2 2 2 3 4 5 6 6 6 5 4 4 4 4 4 4 4 6 7 6 7 7 5 5 6 6 7 7 4 4 4 2
5 4 4 2 1 3 3 6 6 5 5 6 6 7 7 5 3 3 2 2 3 4 5 6 6 6 6 5 4 3 3 3 4 4 4 5 6 6 6 7 6 6 6 6 6 5 3 3 4
5 6 5 4 2 1 1 5 6 6 5 5 7 7 6 7 7 5 4 3 3 3 5 5 6 5 5 5 3 2 2 2 2 2 3 4 5 6 6 7 6 6 6 6 7 7 7 5 4
4 4 5 5 5 1 3 4 7 6 7 9 9 8 9 8 7 5 5 4 4 4 3 4 4 4 4 5 5 5 5 4 4 3 3 3 4 4 4 5 6 6 6 6 7 7 7 6 5
3 3 3 3 4 1 1 3 8 3 7 11 11 10 10 9 8 7 6 5 4 3 3 3 3 3 3 4 5 5 4 3 2 2 3 3 2 3 3 3 3 4 5 6 6 6 7 6 6
3 4 4 3 3 3 6 5 8 6 9 7 8 9 9 8 8 6 4 4 3 2 2 3 3 2 2 3 3 4 5 4 3 3 3 2 2 2 2 2 3 3 3 4 5 5 6 6 6
4 5 3 2 3 5 4 6 10 8 7 7 8 7 6 6 7 7 7 6 5 3 3 3 4 3 2 3 2 3 3 3 4 3 3 2 2 2 2 2 2 3 3 3 4 4 4 5 5
5 4 4 5 5 2 3 8 9 6 5 5 6 5 4 5 6 7 7 6 5 4 4 3 3 3 2 3 2 2 2 2 2 2 2 2 2 2 1 2 2 2 2 2 2 2 3 2 4
6 4 2 4 2 1 5 6 9 3 4 3 3 2 3 4 5 6 6 5 5 4 4 4 4 3 3 2 3 2 2 2 2 1 1 1 0 0 0 1 1 1 1 1 1 1 1 1 2
3 5 4 4 4 3 4 5 5 5 5 3 2 3 3 3 4 5 5 4 4 4 3 4 4 3 2 2 2 3 3 2 2 2 2 1 1 1 1 1 1 1 1 1 1 1 1 2 1
4 3 3 3 3 4 3 6 5 5 5 4 4 3 4 5 5 4 4 4 4 4 4 4 3 3 3 3 3 4 3 3 3 3 3 2 2 2 2 2 3 3 3 3 3 3 3 3 2
4 5 6 4 3 3 2 7 4 4 4 4 4 3 3 4 4 4 4 4 4 4 3 3 3 3 3 3 3 4 3 4 4 4 4 3 3 3 3 3 4 4 4 3 3 3 3 4 4
Wind_Direction
334 27 58 58 61 69 219 234 227 249 234 234 218 184 172 171 172 196 129 142 139 146 154 154 155 152 148 143 139 136 133 131 128 126 125 123 121 118 115 111 107 103 100 100 101 98 96 96 97
31 52 57 69 116 181 241 231 224 224 241 307 348 119 124 234 144 123 140 155 145 146 150 151 153 152 149 145 143 141 138 136 134 132 129 127 125 123 118 114 110 107 104 104 103 101 98 98 98
108 57 93 103 162 192 218 219 220 254 285 285 1 44 153 241 158 167 165 152 144 144 146 151 152 152 149 147 146 144 142 140 138 136 134 132 131 128 123 118 113 112 110 109 107 104 102 101 100
101 67 72 138 211 213 205 203 190 272 1 31 63 357 335 357 208 172 147 148 142 141 143 151 151 151 149 149 148 147 146 143 140 140 139 138 138 133 127 122 119 118 117 116 113 108 105 103 102
77 110 144 210 227 233 229 221 179 136 353 14 76 28 318 349 75 130 146 150 147 142 144 151 151 151 150 150 149 148 148 145 144 143 144 143 141 137 132 128 126 126 125 123 119 113 109 107 108
105 118 173 210 223 239 244 216 182 177 179 7 103 100 313 19 121 139 148 149 146 144 145 151 150 149 150 151 150 149 147 147 148 149 149 147 144 141 138 136 134 134 133 130 126 120 114 110 110
150 160 195 199 208 230 226 188 186 181 199 214 157 130 306 104 135 139 141 140 137 137 141 146 149 148 149 150 149 147 146 147 150 152 150 146 144 144 145 144 143 140 137 134 131 127 121 115 113
156 153 184 193 193 221 206 180 194 179 209 193 148 156 213 172 140 133 134 137 137 136 141 144 145 145 146 148 149 146 146 146 148 145 141 140 141 146 149 149 149 146 142 140 138 134 127 116 114
131 162 203 199 191 209 188 186 207 160 136 128 171 201 206 138 140 140 142 146 153 155 152 149 147 145 143 145 150 146 146 144 139 135 138 134 131 135 142 148 150 148 146 147 146 138 124 107 102
160 204 215 194 188 187 189 191 184 131 143 150 51 42 122 145 155 159 163 166 169 171 170 162 156 153 149 151 141 137 135 135 130 129 131 126 128 133 137 153 155 152 148 151 153 139 116 95 84
180 207 199 204 201 183 178 193 173 159 216 202 187 169 153 163 167 171 173 176 178 175 174 172 166 159 154 146 145 138 132 133 135 139 138 132 127 128 126 133 144 138 134 122 127 103 95 101 110
181 215 187 192 53 142 171 172 183 199 220 211 192 172 167 175 179 180 180 181 179 178 182 176 170 164 159 152 154 151 148 149 154 157 152 146 144 147 150 153 150 145 138 142 132 128 127 125 138
197 193 187 202 12 340 136 188 202 235 246 252 160 164 176 186 190 190 184 180 180 185 186 181 175 171 166 158 160 163 166 169 169 166 167 163 162 167 168 168 169 170 164 170 172 173 180 195 200
184 177 185 225 246 319 225 265 199 236 229 163 168 181 188 195 192 182 182 186 189 192 190 184 182 178 171 170 170 173 176 175 173 177 180 176 172 174 176 181 187 192 189 188 189 194 198 214 220
144 144 222 233 211 229 153 266 231 232 188 182 191 196 196 201 191 191 192 191 193 194 190 187 187 180 178 178 179 180 181 177 182 188 186 185 181 182 184 188 198 205 196 190 189 202 199 225 232
134 157 202 224 189 199 169 240 246 225 182 199 208 208 209 213 208 205 197 194 190 188 189 189 189 182 183 183 182 180 182 184 190 189 188 192 192 188 186 194 207 205 193 189 195 198 210 230 235
165 190 198 208 190 174 181 233 259 218 183 202 214 219 222 229 235 226 203 196 190 186 185 186 187 182 186 186 185 185 183 189 191 189 190 196 197 194 193 201 207 196 196 201 206 202 199 220 231
177 176 176 191 198 174 196 232 272 272 189 209 219 226 234 236 238 239 221 200 187 184 181 183 185 184 182 180 175 178 186 193 189 190 196 195 199 198 198 204 205 193 198 207 208 210 206 213 220
158 157 175 194 219 179 211 235 255 267 232 225 229 231 240 250 262 259 235 199 176 172 174 182 182 178 170 171 177 182 195 193 194 198 199 198 197 196 198 205 201 197 206 212 207 201 208 217 186
180 172 181 186 203 183 219 249 256 251 233 224 224 228 230 242 261 253 237 198 187 182 177 176 182 178 180 186 179 173 168 185 194 196 200 202 202 200 201 203 203 202 209 213 206 196 192 204 179
196 185 180 164 87 46 98 286 257 258 245 241 231 227 227 223 229 232 225 212 191 193 188 184 184 183 185 180 155 130 125 120 159 193 202 206 205 205 206 207 207 205 206 215 212 203 202 213 207
201 192 181 161 137 215 176 251 266 240 252 244 238 230 231 228 220 215 213 208 202 203 189 183 180 178 181 174 170 173 183 194 197 192 196 201 203 204 207 207 208 208 209 216 215 208 209 208 216
177 159 162 155 133 107 197 223 276 238 241 243 237 230 228 221 212 206 202 197 193 185 174 170 159 161 166 170 181 183 193 200 185 172 180 198 207 208 209 211 209 214 216 220 218 212 213 215 218
132 101 81 76 106 222 205 194 268 229 221 239 238 231 223 212 204 195 181 162 156 142 135 137 136 136 143 154 163 178 188 187 181 187 192 202 210 212 219 221 220 224 225 225 227 223 220 224 225
132 133 135 148 183 237 185 198 248 243 230 229 239 239 227 203 188 180 171 167 159 148 136 128 128 127 122 127 140 164 176 177 188 195 201 202 211 222 238 228 231 233 238 234 231 224 225 224 225
167 156 163 173 190 237 191 226 251 255 264 258 251 246 221 198 186 177 172 162 154 144 131 123 121 116 103 113 121 120 137 154 171 182 182 195 216 232 249 237 235 245 248 241 227 222 224 219 221
151 183 162 117 116 176 241 274 295 259 274 274 263 228 207 190 176 163 152 147 143 137 130 127 119 107 95 100 105 94 96 115 130 131 140 159 228 249 279 258 248 254 240 230 198 202 206 196 212
147 143 123 141 157 219 260 257 251 262 259 266 249 222 198 163 150 143 139 137 131 124 112 103 107 109 100 93 93 93 80 84 93 93 85 78 54 50 60 55 59 57 53 66 95 95 89 104 89
147 155 154 147 164 169 236 263 230 237 248 244 241 215 183 165 154 144 134 127 119 110 106 105 104 102 96 91 88 87 78 75 78 76 66 58 49 49 56 62 66 64 56 58 77 76 79 89 79
173 177 160 165 201 182 198 268 291 266 256 224 217 199 176 162 148 140 136 128 122 119 114 112 110 108 107 104 98 91 83 78 75 69 59 61 60 54 60 68 71 67 62 60 74 83 80 87 86